TimeMST,TemperatureF,Dew PointF,Humidity,Sea Level PressureIn,VisibilityMPH,Wind Direction,Wind SpeedMPH,Gust SpeedMPH,PrecipitationIn,Events,Conditions,WindDirDegrees,DateUTC
12:58 AM,88.3,63.1,43,29.79,10.0,NNW,4.6,-,N/A,,Clear,330,2013-09-05 07:58:00
1:58 AM,88.2,62.6,42,29.79,10.0,NNW,5.8,-,N/A,,Clear,330,2013-09-05 08:58:00
2:58 AM,87.1,62.1,43,29.78,10.0,North,6.9,-,N/A,,Clear,350,2013-09-05 09:58:00
3:58 AM,84.0,62.4,48,29.78,10.0,North,4.6,-,N/A,,Partly Cloudy,350,2013-09-05 10:58:00
4:58 AM,84.2,61.7,47,29.79,10.0,NNW,8.1,-,N/A,,Partly Cloudy,330,2013-09-05 11:58:00
5:58 AM,82.2,61.7,50,29.81,10.0,NNW,5.8,-,N/A,,Partly Cloudy,340,2013-09-05 12:58:00
6:58 AM,84.6,62.2,47,29.83,10.0,NNW,2.3,-,N/A,,Clear,340,2013-09-05 13:58:00
7:58 AM,91.2,62.2,38,29.85,10.0,NW,4.6,-,N/A,,Clear,320,2013-09-05 14:58:00
8:58 AM,94.8,58.6,30,29.86,10.0,Variable,3.5,-,N/A,,Clear,0,2013-09-05 15:58:00
9:58 AM,98.6,57.0,25,29.86,10.0,North,4.6,-,N/A,,Clear,10,2013-09-05 16:58:00
10:58 AM,103.1,54.7,20,29.84,10.0,SE,5.8,-,N/A,,Clear,140,2013-09-05 17:58:00
11:58 AM,105.8,51.6,16,29.82,10.0,SE,12.7,-,N/A,,Clear,130,2013-09-05 18:58:00
12:58 PM,106.7,52.2,16,29.81,10.0,Variable,6.9,-,N/A,,Partly Cloudy,0,2013-09-05 19:58:00
1:26 PM,107.6,51.8,16,29.84,10.0,SE,12.7,19.6,N/A,,Partly Cloudy,140,2013-09-05 20:26:00
1:58 PM,107.6,49.6,14,29.78,10.0,SSE,8.1,-,N/A,,Clear,160,2013-09-05 20:58:00
2:58 PM,108.0,46.8,13,29.75,10.0,SE,12.7,17.3,N/A,,Clear,130,2013-09-05 21:58:00
3:58 PM,108.7,44.6,12,29.73,10.0,South,4.6,-,N/A,,Clear,190,2013-09-05 22:58:00
4:58 PM,108.3,45.7,12,29.71,10.0,Variable,1.2,-,N/A,,Clear,0,2013-09-05 23:58:00
5:58 PM,107.6,45.5,12,29.71,10.0,SE,3.5,-,N/A,,Clear,140,2013-09-06 00:58:00
6:58 PM,105.8,46.2,13,29.71,10.0,SSE,4.6,-,N/A,,Clear,160,2013-09-06 01:58:00
7:58 PM,104.9,48.9,15,29.73,10.0,SE,2.3,-,N/A,,Mostly Cloudy,130,2013-09-06 02:58:00
8:58 PM,101.3,51.1,18,29.74,10.0,NNE,10.4,-,N/A,,Mostly Cloudy,30,2013-09-06 03:58:00
9:58 PM,99.0,53.8,22,29.76,10.0,SW,4.6,-,N/A,,Mostly Cloudy,220,2013-09-06 04:58:00
10:58 PM,97.5,55.4,24,29.78,10.0,SW,6.9,-,N/A,,Mostly Cloudy,220,2013-09-06 05:58:00
11:58 PM,94.8,57.0,28,29.78,10.0,WSW,8.1,-,N/A,,Mostly Cloudy,250,2013-09-06 06:58:00